Weather WX

World > North America > United States > Ohio

Racine, Ohio Regional Weather

Lat: 38.97N, Lon: 81.91W
Wx Zone: OHZ085
Warning FLW WEATHER ALERT - FLASH FLOOD WATCH (More Info. Click Here) Warning
Feedback

Racine, OH Regional Weather

Expires:201906182100;;695674
ASUS41 KCLE 182012
RWRCLE
OHIO REGIONAL WEATHER ROUNDUP
NATIONAL WEATHER SERVICE WILMINGTON, OH
400 PM EDT TUE JUN 18 2019

NOTE: "FAIR" INDICATES FEW OR NO CLOUDS BELOW 12,000 FEET WITH NO
SIGNIFICANT WEATHER AND/OR OBSTRUCTIONS TO VISIBILITY.


OHZ036-037-039>041-045>050-054>059-063>069-073>076-082>088-182100-
  CENTRAL AND SOUTHEAST OHIO
  
CITY           SKY/WX    TMP DP  RH WIND       PRES   REMARKS
COLUMBUS       PTSUNNY   76  68  76 SW12      29.90F                  
OSU AIRPORT    FAIR      79  69  71 S7        29.90F                  
BOLTON FIELD   CLOUDY    75  70  83 S13G21    29.91F                  
RICKENBACK AFB LGT RAIN  73  70  92 CALM      29.90F                  
NEWARK         PTSUNNY   77  69  76 SW9       29.90F                  
MARION         CLOUDY    77  66  68 N9        29.91F                  
LANCASTER      LGT RAIN  73  70  90 CALM      29.91F FOG              
ZANESVILLE     FAIR      74  67  78 SW3       29.92S                  
NEW PHILLY     PTSUNNY   75  67  76 S5        29.92F                  
$$
  

SKY/WX - Weather  TMP - Temperature  DP - Dew Point  RH - Relative Humidity
WIND - Wind Direction/Speed PRES - Barometric Pressure VSB - Visibility
WCI - Wind Chill Index E13G22 Wind - East Wind 13 mph/Gusts of 22 mph